GW5444 Weather Reports


time (UTC)temp
C
wind
direction
speed
KPH
gust
KPH
rain 1hr
cm
rain 24hr
cm
rain mn
cm
humidity
%
barometer
mb
20260906004003 27 311 1.6 6.4 0.00 0.00 0.00 79 1008.7
20260906003525 27 307 1.6 6.4 0.00 0.00 0.00 79 1008.7
20260906003003 27 294 0.0 3.2 0.00 0.00 0.00 79 1008.8
20260906002504 27 0 0.0 0.0 0.00 0.00 0.00 78 1008.9
20260906002003 27 0 0.0 0.0 0.00 0.00 0.00 78 1008.9
20260906001503 28 0 0.0 0.0 0.00 0.00 0.00 76 1009.2
20260906001003 28 249 0.0 1.6 0.00 0.00 0.00 76 1009.2
20260906000503 28 249 0.0 1.6 0.00 0.00 0.00 75 1009.4
20260906000024 28 227 0.0 4.8 0.00 0.00 0.00 74 1009.4
20260905235503 28 179 1.6 4.8 0.00 0.00 0.00 74 1009.5
20260905235003 29 129 0.0 4.8 0.00 0.00 0.00 76 1009.5
20260905234503 30 0 0.0 0.0 0.00 0.00 0.00 73 1009.6
20260905234025 30 0 0.0 0.0 0.00 0.00 0.00 72 1009.5
20260905233503 30 0 0.0 0.0 0.00 0.00 0.00 71 1009.5
20260905233003 31 0 0.0 0.0 0.00 0.00 0.00 69 1009.3
20260905232504 31 0 0.0 0.0 0.00 0.00 0.00 68 1009.2
20260905232003 31 0 0.0 0.0 0.00 0.00 0.00 68 1009.2
20260905231504 31 0 0.0 0.0 0.00 0.00 0.00 67 1009.4
20260905231003 31 15 0.0 1.6 0.00 0.00 0.00 66 1009.3
20260905230504 32 15 0.0 1.6 0.00 0.00 0.00 65 1009.3
20260905230004 32 15 0.0 1.6 0.00 0.00 0.00 64 1009.3
20260905225503 32 15 0.0 1.6 0.00 0.00 0.00 64 1009.1
20260905225024 32 9 0.0 1.6 0.00 0.00 0.00 62 1009.0
20260905224504 32 327 0.0 1.6 0.00 0.00 0.00 62 1009.1
20260905224003 32 326 0.0 1.6 0.00 0.00 0.00 61 1009.1
20260905223504 32 351 0.0 4.8 0.00 0.00 0.00 61 1009.2
20260905223003 32 5 0.0 4.8 0.00 0.00 0.00 59 1009.0
20260905222503 32 357 0.0 4.8 0.00 0.00 0.00 60 1009.0
20260905222003 32 334 1.6 4.8 0.00 0.00 0.00 60 1009.0
20260905221504 32 317 1.6 4.8 0.00 0.00 0.00 59 1009.0
20260905221003 33 301 0.0 4.8 0.00 0.00 0.00 59 1009.0
20260905220503 33 290 0.0 4.8 0.00 0.00 0.00 59 1009.1
20260905220004 33 314 1.6 4.8 0.00 0.00 0.00 59 1009.1
20260905215524 33 322 1.6 8.0 0.00 0.00 0.00 58 1009.0
20260905215004 33 308 1.6 8.0 0.00 0.00 0.00 59 1009.1
20260905214503 33 287 1.6 4.8 0.00 0.00 0.00 58 1009.1
20260905214025 33 308 1.6 4.8 0.00 0.00 0.00 57 1009.1
20260905213525 33 345 3.2 8.0 0.00 0.00 0.00 57 1009.1
20260905213003 33 338 3.2 8.0 0.00 0.00 0.00 58 1009.0
20260905212504 33 324 1.6 9.7 0.00 0.00 0.00 60 1009.0
20260905212004 33 5 3.2 9.7 0.00 0.00 0.00 58 1009.1
20260905211524 33 4 3.2 8.0 0.00 0.00 0.00 57 1009.1
20260905211003 33 323 3.2 8.0 0.00 0.00 0.00 56 1009.2
20260905210503 33 307 1.6 6.4 0.00 0.00 0.00 55 1009.2
20260905210004 33 305 1.6 6.4 0.00 0.00 0.00 56 1009.3
20260905205503 33 310 3.2 8.0 0.00 0.00 0.00 57 1009.2
20260905205004 34 316 3.2 8.0 0.00 0.00 0.00 56 1009.3
20260905204503 34 322 3.2 9.7 0.00 0.00 0.00 55 1009.3
20260905204003 34 313 3.2 11.3 0.00 0.00 0.00 56 1009.3
20260905203503 34 308 3.2 11.3 0.00 0.00 0.00 55 1009.4
20260905203003 34 315 1.6 8.0 0.00 0.00 0.00 57 1009.4
20260905202503 34 340 3.2 11.3 0.00 0.00 0.00 57 1009.5
20260905202024 34 347 3.2 12.9 0.00 0.00 0.00 55 1009.6
20260905201503 34 331 3.2 12.9 0.00 0.00 0.00 56 1009.6
20260905201004 34 348 3.2 8.0 0.00 0.00 0.00 57 1009.7
20260905200503 34 1 3.2 8.0 0.00 0.00 0.00 56 1009.7
20260905200003 34 325 1.6 4.8 0.00 0.00 0.00 55 1009.7
20260905195504 35 282 1.6 4.8 0.00 0.00 0.00 54 1009.9
20260905195004 35 289 1.6 3.2 0.00 0.00 0.00 55 1009.9
20260905194503 35 293 0.0 3.2 0.00 0.00 0.00 54 1010.0
20260905194004 35 197 0.0 3.2 0.00 0.00 0.00 56 1010.1
20260905193524 34 154 1.6 6.4 0.00 0.00 0.00 56 1010.1
20260905193003 34 130 3.2 6.4 0.00 0.00 0.00 56 1010.1
20260905192524 34 95 1.6 4.8 0.00 0.00 0.00 55 1010.2
20260905192003 33 340 1.6 8.0 0.00 0.00 0.00 56 1010.3
20260905191504 33 72 1.6 9.7 0.00 0.00 0.00 54 1010.3
20260905191003 33 75 1.6 9.7 0.00 0.00 0.00 57 1010.3
20260905190504 33 56 1.6 6.4 0.00 0.00 0.00 57 1010.5
20260905190004 33 82 0.0 3.2 0.00 0.00 0.00 55 1010.6
20260905185504 34 141 1.6 3.2 0.00 0.00 0.00 56 1010.7
20260905185004 33 148 1.6 6.4 0.00 0.00 0.00 54 1010.7
20260905184504 33 164 1.6 6.4 0.00 0.00 0.00 58 1010.7
20260905184003 33 216 1.6 4.8 0.00 0.00 0.00 58 1010.7
20260905183503 33 273 1.6 3.2 0.00 0.00 0.00 57 1010.8
20260905183003 33 154 1.6 6.4 0.00 0.00 0.00 60 1010.9
20260905182503 33 136 1.6 8.0 0.00 0.00 0.00 56 1011.1
20260905182003 32 129 1.6 8.0 0.00 0.00 0.00 60 1011.2
20260905181504 32 93 3.2 6.4 0.00 0.00 0.00 60 1011.2
20260905181003 32 114 3.2 8.0 0.00 0.00 0.00 59 1011.3
20260905180503 32 133 3.2 8.0 0.00 0.00 0.00 59 1011.3
20260905180004 32 122 3.2 6.4 0.00 0.00 0.00 61 1011.2
20260905175504 32 129 3.2 6.4 0.00 0.00 0.00 59 1011.3
20260905175003 32 136 1.6 8.0 0.00 0.00 0.00 60 1011.4
20260905174504 32 138 1.6 8.0 0.00 0.00 0.00 60 1011.5
20260905174003 32 133 1.6 11.3 0.00 0.00 0.00 61 1011.5
20260905173503 32 136 3.2 11.3 0.00 0.00 0.00 60 1011.5
20260905173004 31 140 3.2 8.0 0.00 0.00 0.00 61 1011.5
20260905172524 31 151 3.2 9.7 0.00 0.00 0.00 63 1011.6
20260905172025 31 149 3.2 9.7 0.00 0.00 0.00 61 1011.6
20260905171504 31 157 1.6 8.0 0.00 0.00 0.00 63 1011.7
20260905171003 31 135 3.2 6.4 0.00 0.00 0.00 64 1011.7
20260905170504 31 137 4.8 9.7 0.00 0.00 0.00 62 1011.8
20260905170004 31 145 3.2 9.7 0.00 0.00 0.00 60 1011.8
20260905165504 31 137 3.2 9.7 0.00 0.00 0.00 65 1012.0
20260905165003 31 136 4.8 12.9 0.00 0.00 0.00 62 1012.0
20260905164503 30 132 4.8 12.9 0.00 0.00 0.00 63 1012.0
20260905164003 30 152 3.2 11.3 0.00 0.00 0.00 64 1012.0
20260905163503 30 163 3.2 11.3 0.00 0.00 0.00 66 1012.1
20260905163004 30 151 4.8 11.3 0.00 0.00 0.00 67 1011.9
20260905162527 30 140 4.8 11.3 0.00 0.00 0.00 66 1011.9
20260905153004 28 89 3.2 9.7 0.00 0.00 0.00 71 1012.6
20260905152525 28 86 3.2 8.0 0.00 0.00 0.00 70 1012.7
20260905152003 28 114 1.6 11.3 0.00 0.00 0.00 75 1012.7
20260905151503 27 82 3.2 12.9 0.00 0.00 0.00 73 1012.8
20260905151003 27 69 3.2 12.9 0.00 0.00 0.00 75 1012.8
20260905150504 27 101 3.2 9.7 0.00 0.00 0.00 77 1012.8
20260905150003 27 138 3.2 9.7 0.00 0.00 0.00 76 1012.8
20260905145503 26 154 1.6 8.0 0.00 0.00 0.00 77 1012.9
20260905145004 26 124 1.6 8.0 0.00 0.00 0.00 80 1012.9
20260905144504 25 85 1.6 6.4 0.00 0.00 0.00 80 1012.9
20260905144003 25 75 1.6 8.0 0.00 0.00 0.00 80 1013.0
20260905143525 25 84 1.6 8.0 0.00 0.00 0.00 79 1012.9
20260905143004 25 109 3.2 11.3 0.00 0.00 0.00 79 1013.0
20260905142503 25 122 3.2 11.3 0.00 0.00 0.00 78 1013.0
20260905142003 25 124 1.6 9.7 0.00 0.00 0.00 78 1013.1
20260905141524 25 92 1.6 11.3 0.00 0.00 0.00 78 1013.2
20260905141003 25 71 1.6 11.3 0.00 0.00 0.00 80 1013.3
20260905140503 25 73 1.6 11.3 0.00 0.00 0.00 79 1013.4
20260905140004 25 69 3.2 12.9 0.00 0.00 0.00 82 1013.4
20260905135503 24 60 4.8 17.7 0.00 0.00 0.00 82 1013.3
20260905135024 24 51 4.8 17.7 0.00 0.00 0.00 81 1013.3
20260905134503 24 32 6.4 19.3 0.00 0.00 0.00 81 1013.1
20260905134025 24 18 6.4 19.3 0.00 0.00 0.00 80 1013.3
20260905133503 25 24 6.4 17.7 0.00 0.00 0.00 80 1013.1
20260905133024 25 33 4.8 17.7 0.00 0.00 0.00 80 1013.2
20260905132503 24 22 3.2 17.7 0.00 0.00 0.00 83 1013.2
20260905132003 24 7 3.2 14.5 0.00 0.00 0.00 84 1013.4
20260905131504 23 357 3.2 14.5 0.00 0.00 0.00 84 1013.2
20260905131024 23 346 3.2 14.5 0.00 0.00 0.00 85 1013.3
20260905130524 23 22 1.6 11.3 0.00 0.00 0.00 85 1013.3
20260905130003 23 55 1.6 11.3 0.00 0.00 0.00 86 1013.0
20260905125503 23 28 0.0 3.2 0.00 0.00 0.00 87 1012.9
20260905125003 23 44 0.0 1.6 0.00 0.00 0.00 87 1012.9
20260905124503 23 35 0.0 1.6 0.00 0.00 0.00 86 1013.0
20260905124004 23 12 0.0 3.2 0.00 0.00 0.00 86 1013.0
20260905123504 23 2 0.0 3.2 0.00 0.00 0.00 86 1013.0
20260905123004 23 5 0.0 3.2 0.00 0.00 0.00 86 1013.0
20260905122503 23 5 0.0 3.2 0.00 0.00 0.00 86 1012.7
20260905122003 23 342 0.0 3.2 0.00 0.00 0.00 86 1012.7
20260905121503 23 8 0.0 3.2 0.00 0.00 0.00 86 1012.7
20260905121004 23 45 0.0 4.8 0.00 0.00 0.00 86 1012.6
20260905120503 23 64 1.6 6.4 0.00 0.00 0.00 87 1012.6
20260905120003 23 70 1.6 6.4 0.00 0.00 0.00 86 1012.4
20260905115503 23 360 1.6 6.4 0.00 0.00 0.00 86 1012.4
20260905115003 23 7 3.2 11.3 0.00 0.00 0.00 86 1012.4
20260905114503 24 355 3.2 14.5 0.00 0.00 0.00 87 1012.4
20260905114003 24 341 3.2 14.5 0.00 0.00 0.00 88 1012.3
20260905113524 23 356 1.6 14.5 0.00 0.00 0.00 91 1012.4
20260905113004 23 9 1.6 6.4 0.00 0.00 0.00 93 1012.0
20260905112503 23 8 1.6 8.0 0.00 0.00 0.00 95 1011.8
20260905112003 23 17 0.0 8.0 0.00 0.00 0.00 96 1011.8
20260905111503 23 0 0.0 0.0 0.00 0.00 0.00 96 1011.7
20260905111003 23 0 0.0 0.0 0.00 0.00 0.00 96 1011.6
20260905110503 23 0 0.0 0.0 0.00 0.00 0.00 96 1011.5
20260905110024 23 0 0.0 0.0 0.00 0.00 0.00 96 1011.3
20260905105503 23 0 0.0 0.0 0.00 0.00 0.00 96 1011.3
20260905105003 23 0 0.0 0.0 0.00 0.00 0.00 96 1011.4
20260905104524 23 0 0.0 0.0 0.00 0.00 0.00 96 1011.3
20260905104003 23 0 0.0 0.0 0.00 0.00 0.00 96 1011.4
20260905103503 23 0 0.0 0.0 0.00 0.00 0.00 96 1011.3
20260905103003 23 0 0.0 0.0 0.00 0.00 0.00 96 1011.1
20260905102524 23 0 0.0 0.0 0.00 0.00 0.00 96 1011.2
20260905102003 23 0 0.0 0.0 0.00 0.00 0.00 95 1011.2
20260905101504 23 0 0.0 0.0 0.00 0.00 0.00 95 1011.3
20260905101003 23 299 0.0 1.6 0.00 0.00 0.00 95 1011.4
20260905100525 23 299 0.0 1.6 0.00 0.00 0.00 96 1011.3
20260905100003 23 0 0.0 0.0 0.00 0.00 0.00 96 1011.2
20260905095503 23 304 0.0 4.8 0.00 0.00 0.00 96 1011.2
20260905095003 23 304 0.0 4.8 0.00 0.00 0.00 96 1011.0
20260905094503 23 0 0.0 0.0 0.00 0.00 0.00 96 1010.9
20260905094003 23 0 0.0 0.0 0.00 0.00 0.00 96 1010.8
20260905093503 23 0 0.0 0.0 0.00 0.00 0.00 96 1010.7
20260905093003 23 0 0.0 0.0 0.00 0.00 0.00 96 1010.6
20260905092503 23 0 0.0 0.0 0.00 0.00 0.00 96 1010.6
20260905092025 23 0 0.0 0.0 0.00 0.00 0.00 96 1010.5
20260905091503 23 0 0.0 0.0 0.00 0.00 0.00 96 1010.4
20260905091003 23 0 0.0 0.0 0.00 0.00 0.00 96 1010.3
20260905090503 23 0 0.0 0.0 0.00 0.00 0.00 96 1010.3
20260905090004 23 0 0.0 0.0 0.00 0.00 0.00 97 1010.4
20260905085503 23 0 0.0 0.0 0.00 0.00 0.00 97 1010.5
20260905085003 23 0 0.0 0.0 0.00 0.00 0.00 97 1010.5
20260905084503 23 0 0.0 0.0 0.00 0.00 0.00 96 1010.3
20260905084024 23 0 0.0 0.0 0.00 0.00 0.00 96 1010.4
20260905083503 23 0 0.0 0.0 0.00 0.00 0.00 96 1010.5
20260905083003 23 0 0.0 0.0 0.00 0.00 0.00 96 1010.5
20260905082524 23 0 0.0 0.0 0.00 0.00 0.00 96 1010.5
20260905082003 23 0 0.0 0.0 0.00 0.00 0.00 96 1010.7
20260905081503 23 0 0.0 0.0 0.00 0.00 0.00 96 1010.6
20260905081003 23 0 0.0 0.0 0.00 0.00 0.00 97 1010.5
20260905080524 23 0 0.0 0.0 0.00 0.00 0.00 96 1010.5
20260905080004 23 0 0.0 0.0 0.00 0.00 0.00 96 1010.5
20260905075503 23 0 0.0 0.0 0.00 0.00 0.00 96 1010.6
20260905075003 23 0 0.0 0.0 0.00 0.00 0.00 96 1010.6
20260905074503 23 0 0.0 0.0 0.00 0.00 0.00 96 1010.7
20260905074003 23 0 0.0 0.0 0.00 0.00 0.00 96 1010.7
20260905073524 23 0 0.0 0.0 0.00 0.00 0.00 96 1010.8
20260905073024 23 0 0.0 0.0 0.00 0.00 0.00 96 1010.9
20260905072524 23 0 0.0 0.0 0.00 0.00 0.00 96 1010.8
20260905072003 23 0 0.0 0.0 0.00 0.00 0.00 96 1010.8
20260905071503 23 0 0.0 0.0 0.00 0.00 0.00 96 1010.9
20260905071003 23 0 0.0 0.0 0.00 0.00 0.00 96 1011.0
20260905070503 23 0 0.0 0.0 0.00 0.00 0.00 96 1011.1
20260905070003 23 0 0.0 0.0 0.00 0.00 0.00 96 1011.1
20260905065503 23 0 0.0 0.0 0.00 0.00 0.00 95 1011.2
20260905065004 23 0 0.0 0.0 0.00 0.00 0.00 95 1011.2
20260905064503 23 0 0.0 0.0 0.00 0.00 0.00 95 1011.2
20260905064003 23 0 0.0 0.0 0.00 0.00 0.00 95 1011.4
20260905063503 23 0 0.0 0.0 0.00 0.00 0.00 95 1011.3
20260905063003 23 0 0.0 0.0 0.00 0.00 0.00 95 1011.3
20260905062503 23 0 0.0 0.0 0.00 0.00 0.00 95 1011.4
20260905062004 23 0 0.0 0.0 0.00 0.00 0.00 95 1011.5
20260905061525 23 0 0.0 0.0 0.00 0.00 0.00 95 1011.5
20260905061003 23 0 0.0 0.0 0.00 0.00 0.00 94 1011.6
20260905060503 23 0 0.0 0.0 0.00 0.00 0.00 94 1011.6
20260905060004 23 0 0.0 0.0 0.00 0.00 0.00 94 1011.6
20260905055503 23 0 0.0 0.0 0.00 0.00 0.00 94 1011.6
20260905055025 23 0 0.0 0.0 0.00 0.00 0.00 94 1011.7
20260905054503 23 0 0.0 0.0 0.00 0.00 0.00 94 1011.7
20260905054003 23 0 0.0 0.0 0.00 0.00 0.00 94 1011.8
20260905053503 24 0 0.0 0.0 0.00 0.00 0.00 94 1011.8
20260905053003 24 0 0.0 0.0 0.00 0.00 0.00 94 1011.9
20260905052503 24 0 0.0 0.0 0.00 0.00 0.00 94 1011.9
20260905052003 24 0 0.0 0.0 0.00 0.00 0.00 94 1011.8
20260905051503 24 0 0.0 0.0 0.00 0.00 0.00 93 1011.9
20260905051003 24 0 0.0 0.0 0.00 0.00 0.00 93 1011.8
20260905050504 24 0 0.0 0.0 0.00 0.00 0.00 93 1011.9
20260905050024 24 0 0.0 0.0 0.00 0.00 0.00 93 1011.9
20260905045503 24 0 0.0 0.0 0.00 0.00 0.00 93 1012.0
20260905045004 24 0 0.0 0.0 0.00 0.00 0.00 93 1012.0
20260905044503 24 0 0.0 0.0 0.00 0.00 0.00 92 1012.0
20260905044004 24 0 0.0 0.0 0.00 0.00 0.00 93 1012.0
20260905043503 24 0 0.0 0.0 0.00 0.00 0.00 93 1012.0
20260905043003 24 0 0.0 0.0 0.00 0.00 0.00 93 1012.0
20260905042524 25 0 0.0 0.0 0.00 0.00 0.00 93 1012.0
20260905042003 24 0 0.0 0.0 0.00 0.00 0.00 93 1012.0
20260905041503 24 0 0.0 0.0 0.00 0.00 0.00 93 1012.0
20260905041003 24 0 0.0 0.0 0.00 0.00 0.00 92 1011.9
20260905040524 24 0 0.0 0.0 0.00 0.00 0.00 92 1011.9
20260905040024 25 0 0.0 0.0 0.00 0.00 0.00 92 1012.0
20260905035503 25 0 0.0 0.0 0.00 0.00 0.00 92 1012.0
20260905035003 25 0 0.0 0.0 0.00 0.00 0.00 92 1012.0
20260905034503 25 0 0.0 0.0 0.00 0.00 0.00 92 1012.1
20260905034024 25 0 0.0 0.0 0.00 0.00 0.00 91 1012.1
20260905033503 25 0 0.0 0.0 0.00 0.00 0.00 91 1012.0
20260905033003 25 0 0.0 0.0 0.00 0.00 0.00 91 1012.1
20260905032524 25 0 0.0 0.0 0.00 0.00 0.00 91 1012.1
20260905032003 25 0 0.0 0.0 0.00 0.00 0.00 91 1012.1
20260905031503 25 0 0.0 0.0 0.00 0.00 0.00 91 1012.1
20260905031024 25 0 0.0 0.0 0.00 0.00 0.00 91 1012.2
20260905030503 25 0 0.0 0.0 0.00 0.00 0.00 91 1012.2
20260905030003 25 0 0.0 0.0 0.00 0.00 0.00 92 1012.2
20260905025503 25 0 0.0 0.0 0.00 0.00 0.00 92 1012.0
20260905025024 25 0 0.0 0.0 0.00 0.00 0.00 91 1012.0
20260905024503 25 0 0.0 0.0 0.00 0.00 0.00 91 1011.9
20260905024003 25 0 0.0 0.0 0.00 0.00 0.00 91 1011.8
20260905023503 25 0 0.0 0.0 0.00 0.00 0.00 90 1011.8
20260905023003 25 0 0.0 0.0 0.00 0.00 0.00 89 1011.8
20260905022503 25 0 0.0 0.0 0.00 0.00 0.00 90 1011.8
20260905022004 25 0 0.0 0.0 0.00 0.00 0.00 89 1011.8
20260905021503 25 0 0.0 0.0 0.00 0.00 0.00 89 1011.9
20260905021003 25 0 0.0 0.0 0.00 0.00 0.00 89 1011.9
20260905020524 25 0 0.0 0.0 0.00 0.00 0.00 88 1011.8
20260905020003 25 0 0.0 0.0 0.00 0.00 0.00 88 1011.7
20260905015504 26 0 0.0 0.0 0.00 0.00 0.00 87 1011.7
20260905015003 26 0 0.0 0.0 0.00 0.00 0.00 87 1011.7
20260905014503 26 0 0.0 0.0 0.00 0.00 0.00 87 1011.7
20260905014003 26 0 0.0 0.0 0.00 0.00 0.00 86 1011.6
20260905013503 26 0 0.0 0.0 0.00 0.00 0.00 86 1011.6
20260905013003 26 0 0.0 0.0 0.00 0.00 0.00 86 1011.6
20260905012503 26 0 0.0 0.0 0.00 0.00 0.00 85 1011.5
20260905012003 27 0 0.0 0.0 0.00 0.00 0.00 85 1011.5
20260905011504 27 0 0.0 0.0 0.00 0.00 0.00 84 1011.5
20260905011003 27 0 0.0 0.0 0.00 0.00 0.00 83 1011.4
20260905010504 27 0 0.0 0.0 0.00 0.00 0.00 82 1011.3
20260905010004 27 0 0.0 0.0 0.00 0.00 0.00 82 1011.2
20260905005503 27 0 0.0 0.0 0.00 0.00 0.00 82 1011.1
20260905005025 28 0 0.0 0.0 0.00 0.00 0.00 81 1011.1
20260905004504 28 0 0.0 0.0 0.00 0.00 0.00 81 1011.0